Regional Weather Roundup
Issued by NWS

Home | Current Version | Previous Version | Graphics & Text | Print | Product List | Glossary On
Versions: 1 2 3 4 5 6 7 8 9 10 11 12 13 14 15 16 17 18 19 20 21 22 23 24 25 26 27 28 29 30 31 32 33 34 35 36 37 38 39 40 41 42 43 44 45 46 47 48 49 50
000
ASUS43 KLMK 020402
RWRKY
KENTUCKY REGIONAL WEATHER ROUNDUP
NATIONAL WEATHER SERVICE LOUISVILLE KY
1200 AM EDT MON MAY 02 2016

NOTE "FAIR" INDICATES FEW OR NO CLOUDS BELOW 12,000 FEET
WITH NO SIGNIFICANT WEATHER AND/OR OBSTRUCTIONS TO VISIBILITY.

KYZ001>023-026-027-061>063-070>075-020500-
WESTERN AND SOUTH CENTRAL KENTUCKY

CITY           SKY/WX    TMP DP  RH WIND       PRES   REMARKS
PADUCAH        CLEAR     67  59  75 NW15G23   29.95R
HENDERSON      MOCLDY    64  54  68 NW15G31   29.94R
OWENSBORO      CLEAR     69  65  87 W9        29.92R
HOPKINSVILLE   CLEAR     65  65  98 SW7       29.96R
BOWLING GREEN  CLEAR     68  60  75 SW3       29.94S
GLASGOW        NOT AVBL
$$

KYZ024-025-028>034-038-045-046-053-020500-
NORTH CENTRAL KENTUCKY

CITY           SKY/WX    TMP DP  RH WIND       PRES   REMARKS
LOUISVILLE/SDF PTCLDY    68  64  87 SW5       29.88S
LOUISVILLE/LOU CLEAR     66  62  87 S5        29.89S
FORT KNOX      CLEAR     66  61  83 S8        29.89S
$$

KYZ035>037-039>044-047>052-055>060-089>105-020500-
NORTHEAST KENTUCKY

CITY           SKY/WX    TMP DP  RH WIND       PRES   REMARKS
LEXINGTON      CLEAR     63  59  87 S10       29.92S
COVINGTON      CLOUDY    61  59  93 S7        29.88S
FRANKFORT      PTCLDY    64  60  87 SE6       29.89F
$$

KYZ054-064>069-076>088-106>120-020500-
SOUTHEAST KENTUCKY

CITY           SKY/WX    TMP DP  RH WIND       PRES   REMARKS
JACKSON        CLEAR     62  58  86 VRB3      29.97F
LONDON         PTCLDY    65  60  84 CALM      29.97R
SOMERSET       NOT AVBL
MIDDLESBORO    NOT AVBL
MONTICELLO     CLEAR     69  64  84 W14       29.98S
$$





USA.gov is the U.S. government's official web portal to all federal, state and local government web resources and services.